Location: Archemont
(49.1579°N, 1.7598°E)
Time: 09:44:42
(UTC+00:00)

ISS - Pass Details

Date: 04 March 2024
Orbit: 413 x 419 km, 51.6° (Epoch: 13 April)

Event Time Altitude Azimuth Distance (km) Brightness Sun altitude
Exits shadow 05:06:00 29° 270° (W) 810 -2.9 -14.3°
Maximum altitude 05:07:25 52° 208° (SSW) 539 -3.5 -14.1°
Drops below altitude 10° 05:10:44 10° 131° (SE) 1,513 -0.3 -13.5°
Sets 05:12:52 0° 127° (SE) 2,374 0.9 -13.2°
